Location: Bj�rn�ya
(74.5000°N, 19.0000°E)
Time: 02:56:31
(UTC+02:00)

Envisat - Pass Details

Date: 31 January 2022
Orbit: 764 x 765 km, 98.2° (Epoch: 21 May)

Event Time Altitude Azimuth Distance (km) Brightness Sun altitude
Rises 02:03:07 0° 5° (N) 3,248 7.1 -30.4°
Reaches altitude 10° 02:06:39 10° 30° (NNE) 2,318 6.4 -30.3°
Maximum altitude 02:09:17 14° 62° (ENE) 2,049 5.9 -30.2°
Drops below altitude 10° 02:11:55 10° 93° (E) 2,314 5.8 -30.1°
Sets 02:15:26 0° 119° (ESE) 3,238 6.4 -29.9°
